Zurück zum Katalog

DELTA 1 DEB

AktivLEO
NORAD 7170·DEBRIS·🇺🇸 United States

Gestartet Nov 6, 1973 von Vandenberg Space Force Base

Loading…

Nächste Überflüge (nächste 24 Stunden)

TLE

AktuellSource: Space-Track

Epoche: Sep 13, 2026, 16:27 UTC

1 07170U 73086EJ  26256.68581964  .00000794  00000-0  24841-2 0  9998
2 07170 101.6512 316.9029 0088787 310.6601 168.5141 13.07244835475726

Verfolge DELTA 1 DEB in Echtzeit mit AllMySat

Download on the App Store